| time (UTC) | temp F | wind direction | speed MPH | gust MPH | rain 1hr in | rain 24hr in | rain mn in | humidity % | barometer mb |
| 20260905160152 | 51 | 135 | 0.0 | 0.0 | 0.00 | 0.02 | 0.00 | 98 | 1021.0 |
| 20260905154537 | 50 | 135 | 0.0 | 2.0 | 0.00 | 0.02 | 0.00 | 98 | 1021.0 |
| 20260905153034 | 50 | 137 | 0.0 | 2.0 | 0.00 | 0.02 | 0.00 | 99 | 1021.0 |
| 20260905151536 | 49 | 180 | 0.0 | 2.0 | 0.00 | 0.02 | 0.00 | 99 | 1020.8 |
| 20260905150033 | 48 | 164 | 0.0 | 2.0 | 0.00 | 0.02 | 0.00 | 99 | 1020.8 |
| 20260905144535 | 47 | 157 | 0.0 | 1.0 | 0.00 | 0.02 | 0.00 | 98 | 1020.8 |
| 20260905141533 | 46 | 138 | 0.0 | 4.0 | 0.00 | 0.02 | 0.00 | 98 | 1020.6 |
| 20260905140107 | 44 | 149 | 1.0 | 4.0 | 0.00 | 0.02 | 0.00 | 98 | 1020.4 |
| 20260905134535 | 44 | 157 | 1.0 | 2.0 | 0.00 | 0.02 | 0.00 | 98 | 1020.3 |
| 20260905133032 | 44 | 153 | 2.0 | 4.0 | 0.00 | 0.02 | 0.00 | 98 | 1020.2 |
| 20260905130035 | 45 | 164 | 2.0 | 4.0 | 0.00 | 0.02 | 0.00 | 98 | 1020.2 |
| 20260905124532 | 46 | 154 | 2.0 | 4.0 | 0.00 | 0.03 | 0.00 | 98 | 1020.2 |
| 20260905123035 | 46 | 135 | 2.0 | 4.0 | 0.00 | 0.03 | 0.00 | 98 | 1020.3 |
| 20260905121534 | 46 | 145 | 2.0 | 4.0 | 0.00 | 0.03 | 0.00 | 98 | 1020.3 |
| 20260905114533 | 47 | 137 | 2.0 | 3.0 | 0.00 | 0.03 | 0.00 | 98 | 1020.1 |
| 20260905113034 | 47 | 190 | 2.0 | 3.0 | 0.00 | 0.03 | 0.00 | 97 | 1020.0 |
| 20260905111532 | 48 | 155 | 1.0 | 2.0 | 0.00 | 0.03 | 0.00 | 97 | 1019.9 |
| 20260905110033 | 48 | 146 | 0.0 | 3.0 | 0.00 | 0.04 | 0.00 | 97 | 1020.0 |
| 20260905104530 | 48 | 111 | 0.0 | 0.0 | 0.00 | 0.04 | 0.00 | 97 | 1020.1 |
| 20260905103031 | 48 | 90 | 0.0 | 0.0 | 0.00 | 0.04 | 0.00 | 97 | 1020.0 |
| 20260905101532 | 49 | 206 | 0.0 | 2.0 | 0.00 | 0.04 | 0.00 | 97 | 1020.0 |
| 20260905094531 | 49 | 135 | 0.0 | 3.0 | 0.00 | 0.04 | 0.00 | 97 | 1020.1 |
| 20260905090037 | 49 | 162 | 1.0 | 3.0 | 0.00 | 0.04 | 0.00 | 97 | 1019.9 |
| 20260905083033 | 49 | 119 | 1.0 | 3.0 | 0.00 | 0.04 | 0.00 | 97 | 1019.8 |
| 20260905081641 | 49 | 160 | 1.0 | 4.0 | 0.00 | 0.04 | 0.00 | 97 | 1019.8 |
| 20260905074536 | 49 | 174 | 1.0 | 4.0 | 0.00 | 0.04 | 0.00 | 97 | 1019.6 |
| 20260905073033 | 49 | 142 | 2.0 | 5.0 | 0.00 | 0.04 | 0.00 | 96 | 1019.6 |
| 20260905071612 | 49 | 141 | 1.0 | 4.0 | 0.00 | 0.04 | 0.00 | 96 | 1019.4 |
| 20260905063152 | 51 | 160 | 1.0 | 4.0 | 0.02 | 0.04 | 0.04 | 95 | 1019.2 |
| 20260905061537 | 51 | 146 | 0.0 | 3.0 | 0.02 | 0.04 | 0.03 | 95 | 1019.2 |
| 20260905060037 | 51 | 143 | 0.0 | 2.0 | 0.01 | 0.03 | 0.02 | 95 | 1019.3 |
| 20260905054535 | 51 | 133 | 1.0 | 3.0 | 0.00 | 0.02 | 0.02 | 95 | 1019.4 |
| 20260905053037 | 51 | 141 | 1.0 | 5.0 | 0.00 | 0.02 | 0.02 | 95 | 1019.4 |
| 20260905051536 | 51 | 154 | 1.0 | 4.0 | 0.00 | 0.02 | 0.02 | 95 | 1019.2 |
| 20260905044536 | 51 | 135 | 0.0 | 2.0 | 0.00 | 0.02 | 0.02 | 94 | 1019.2 |
| 20260905043036 | 51 | 158 | 1.0 | 3.0 | 0.00 | 0.02 | 0.02 | 93 | 1019.0 |
| 20260905041536 | 51 | 157 | 0.0 | 1.0 | 0.00 | 0.02 | 0.02 | 93 | 1019.0 |
| 20260905040045 | 51 | 162 | 0.0 | 1.0 | 0.00 | 0.02 | 0.02 | 93 | 1018.8 |
| 20260905034611 | 51 | 135 | 0.0 | 2.0 | 0.00 | 0.02 | 0.02 | 91 | 1018.8 |
| 20260905033030 | 51 | 151 | 2.0 | 3.0 | 0.00 | 0.02 | 0.02 | 89 | 1018.6 |
| 20260905031535 | 54 | 180 | 1.0 | 3.0 | 0.00 | 0.02 | 0.02 | 86 | 1018.4 |
| 20260905024535 | 55 | 315 | 0.0 | 0.0 | 0.00 | 0.02 | 0.02 | 84 | 1018.5 |
| 20260905023033 | 56 | 332 | 1.0 | 4.0 | 0.00 | 0.02 | 0.02 | 82 | 1018.6 |
| 20260905021537 | 57 | 329 | 2.0 | 4.0 | 0.00 | 0.02 | 0.02 | 80 | 1018.4 |
| 20260905020111 | 59 | 359 | 0.0 | 0.0 | 0.00 | 0.02 | 0.02 | 75 | 1018.0 |
| 20260905013032 | 60 | 284 | 0.0 | 1.0 | 0.00 | 0.02 | 0.02 | 73 | 1017.9 |
| 20260905011535 | 60 | 270 | 0.0 | 0.0 | 0.00 | 0.02 | 0.02 | 74 | 1017.9 |
| 20260905010033 | 60 | 267 | 0.0 | 0.0 | 0.00 | 0.02 | 0.02 | 74 | 1017.9 |
| 20260905004652 | 60 | 247 | 0.0 | 0.0 | 0.00 | 0.02 | 0.02 | 74 | 1017.8 |
| 20260905003109 | 60 | 248 | 0.0 | 3.0 | 0.00 | 0.02 | 0.02 | 74 | 1017.6 |
| 20260905001534 | 59 | 281 | 1.0 | 4.0 | 0.00 | 0.02 | 0.02 | 76 | 1017.6 |
| 20260905000031 | 59 | 273 | 1.0 | 4.0 | 0.00 | 0.02 | 0.02 | 76 | 1017.5 |
| 20260904234537 | 59 | 318 | 2.0 | 5.0 | 0.00 | 0.02 | 0.02 | 77 | 1017.6 |
| 20260904233034 | 60 | 299 | 1.0 | 3.0 | 0.00 | 0.02 | 0.02 | 75 | 1017.5 |
| 20260904231608 | 60 | 308 | 1.0 | 3.0 | 0.00 | 0.02 | 0.02 | 72 | 1017.5 |
| 20260904230035 | 61 | 154 | 0.0 | 5.0 | 0.00 | 0.02 | 0.02 | 68 | 1017.5 |
| 20260904224532 | 60 | 127 | 0.0 | 4.0 | 0.00 | 0.02 | 0.02 | 73 | 1017.4 |
| 20260904223035 | 58 | 67 | 1.0 | 6.0 | 0.00 | 0.02 | 0.02 | 78 | 1017.3 |
| 20260904221608 | 58 | 144 | 3.0 | 9.0 | 0.00 | 0.02 | 0.02 | 77 | 1017.4 |
| 20260904220036 | 59 | 180 | 1.0 | 5.0 | 0.00 | 0.02 | 0.02 | 79 | 1017.4 |
| 20260904214533 | 59 | 121 | 0.0 | 4.0 | 0.00 | 0.02 | 0.02 | 77 | 1017.4 |
| 20260904213036 | 60 | 360 | 0.0 | 0.0 | 0.00 | 0.02 | 0.02 | 76 | 1017.3 |
| 20260904211535 | 60 | 349 | 0.0 | 3.0 | 0.00 | 0.02 | 0.02 | 75 | 1017.2 |
| 20260904210034 | 59 | 292 | 0.0 | 2.0 | 0.00 | 0.02 | 0.02 | 76 | 1017.0 |
| 20260904204534 | 59 | 345 | 0.0 | 3.0 | 0.00 | 0.02 | 0.02 | 77 | 1016.9 |
| 20260904203116 | 58 | 64 | 0.0 | 3.0 | 0.00 | 0.02 | 0.02 | 78 | 1017.0 |
| 20260904200033 | 57 | 315 | 0.0 | 1.0 | 0.00 | 0.02 | 0.02 | 78 | 1017.2 |
| 20260904194536 | 57 | 310 | 1.0 | 5.0 | 0.00 | 0.02 | 0.02 | 79 | 1017.2 |
| 20260904191536 | 56 | 344 | 0.0 | 3.0 | 0.00 | 0.02 | 0.02 | 81 | 1017.3 |
| 20260904190035 | 56 | 315 | 1.0 | 4.0 | 0.00 | 0.02 | 0.02 | 82 | 1017.4 |
| 20260904183152 | 55 | 320 | 1.0 | 3.0 | 0.00 | 0.02 | 0.02 | 82 | 1017.3 |
| 20260904181533 | 55 | 314 | 0.0 | 4.0 | 0.00 | 0.02 | 0.02 | 82 | 1017.2 |
| 20260904174641 | 53 | 319 | 1.0 | 4.0 | 0.00 | 0.02 | 0.02 | 93 | 1017.2 |
| 20260904173036 | 51 | 45 | 0.0 | 1.0 | 0.00 | 0.02 | 0.02 | 94 | 1017.0 |
| 20260904171532 | 51 | 48 | 0.0 | 3.0 | 0.00 | 0.02 | 0.02 | 95 | 1017.0 |
| 20260904170035 | 51 | 14 | 1.0 | 3.0 | 0.00 | 0.02 | 0.02 | 95 | 1017.0 |
| 20260904164534 | 51 | 330 | 0.0 | 3.0 | 0.00 | 0.02 | 0.02 | 96 | 1016.9 |
| 20260904163032 | 51 | 299 | 1.0 | 4.0 | 0.00 | 0.02 | 0.02 | 97 | 1016.9 |
| 20260904161531 | 50 | 278 | 1.0 | 4.0 | 0.00 | 0.02 | 0.02 | 97 | 1016.8 |